Weather History for Trieste, Italy

Change the Weather History Date:

Monday, February 10, 2014

  Actual Average Record
Temperature  
Mean Temperature 48 °F -  
Max Temperature 55 °F 50 °F 57 °F (2011)
Min Temperature 41 °F 41 °F 23 °F (2012)
Degree Days  
Heating Degree Days 18    
Moisture  
Dew Point 44 °F    
Average Humidity 76    
Maximum Humidity 100    
Minimum Humidity 55    
Precipitation  
Precipitation 0.35 in 0.09 in - ()
Sea Level Pressure  
Sea Level Pressure 29.70 in    
Wind  
Wind Speed 5 mph ()    
Max Wind Speed 15 mph    
Max Gust Speed 28 mph    
Visibility 7.7 miles    
Events Rain    
Averages and records for this station are not official NWS values.
T = Trace of Precipitation, MM = Missing Value Source: Averaged Metar Reports

Daily Weather History Graph

Daily Weather History Graph

Search for Another Location

Airport:

Trip Planner

Search our weather history database for the weather conditions in past years. The results will help you decide how hot, cold, wet, or windy it might be!

Date:

Astronomy

Feb. 10, 2014 Rise Set
Actual Time 7:14 AM CET 5:24 PM CET
Civil Twilight 6:43 AM CET 5:55 PM CET
Nautical Twilight 6:08 AM CET 6:30 PM CET
Astronomical Twilight 5:34 AM CET 7:04 PM CET
Moon 1:33 PM CET (2/10) 4:00 AM CET (2/10)
Length of Visible Light 11h 11m
Length of Day
10h 09m
Waxing Gibbous, 82% of the Moon is Illuminated
Feb 10
Waxing Gibbous
Feb 15
Full
Feb 22
Last Quarter
Mar 1
New
Mar 8
First Quarter

Hourly Weather History & Observations

Time (CET) Temp. Windchill Dew Point Humidity Pressure Visibility Wind Dir Wind Speed Gust Speed Precip Events Conditions
12:00 AM 46 °F - 35 °F 55% 29.75 in 12 mi NE 15.0 mph - -  
12:55 AM 44.6 °F - 35.6 °F 71% 29.74 in 6.2 mi NE 1.2 mph - N/A   Partly Cloudy
1:00 AM 45 °F - 36 °F 62% 29.76 in 12 mi NE 1.2 mph - -   Partly Cloudy
1:55 AM 41.0 °F - 37.4 °F 87% 29.77 in - NE 2.3 mph - N/A   Clear
2:00 AM 42 °F - 37 °F 76% 29.78 in 12 mi NE 2.3 mph - -   Partly Cloudy
2:55 AM 44.6 °F 41.4 °F 37.4 °F 76% 29.77 in 6.2 mi ENE 5.8 mph - N/A   Partly Cloudy
3:00 AM 45 °F - 36 °F 63% 29.80 in 12 mi ENE 5.8 mph - -   Scattered Clouds
3:55 AM 46.4 °F 45.2 °F 39.2 °F 76% 29.77 in - ENE 3.5 mph - N/A   Clear
4:00 AM 47 °F - 39 °F 65% 29.79 in 12 mi ENE 3.5 mph - -   Mostly Cloudy
4:55 AM 46.4 °F - 39.2 °F 76% 29.77 in 6.2 mi East 2.3 mph - N/A   Scattered Clouds
5:00 AM 47 °F - 40 °F 67% 29.80 in 12 mi East 2.3 mph - -   Partly Cloudy
5:55 AM 48.2 °F - 39.2 °F 71% 29.77 in 6.2 mi East 4.6 mph - N/A   Partly Cloudy
6:00 AM 49 °F - 39 °F 59% 29.79 in 12 mi East 4.6 mph - -   Scattered Clouds
6:55 AM 50.0 °F - 41.0 °F 71% 29.77 in 6.2 mi ENE 4.6 mph - N/A   Scattered Clouds
7:00 AM 50 °F - 41 °F 62% 29.79 in 12 mi ENE 4.6 mph - -   Partly Cloudy
7:55 AM 50.0 °F - 42.8 °F 76% 29.77 in 6.2 mi ENE 4.6 mph - N/A   Scattered Clouds
8:00 AM 50 °F - 42 °F 67% 29.78 in 6 mi ENE 4.6 mph - -   Overcast
8:55 AM 51.8 °F - 44.6 °F 76% 29.77 in - East 2.3 mph - N/A   Clear
9:00 AM 51 °F - 44 °F 69% 29.78 in 6 mi East 2.3 mph - -   Overcast
9:55 AM 51.8 °F - 44.6 °F 76% 29.77 in - East 3.5 mph - N/A   Clear
10:00 AM 52 °F - 44 °F 66% 29.78 in 12 mi East 3.5 mph - -   Overcast
10:55 AM 53.6 °F - 44.6 °F 72% 29.77 in - ESE 2.3 mph - N/A   Clear
11:00 AM 53 °F - 44 °F 64% 29.78 in 12 mi ESE 2.3 mph - -   Overcast
12:00 PM 54 °F - 44 °F 60% 29.76 in 12 mi ESE 5.8 mph - -   Overcast
12:55 PM 51.8 °F - 42.8 °F 71% 29.71 in 6.2 mi East 3.5 mph - N/A Rain Rain
1:00 PM 52 °F - 43 °F 63% 29.73 in 6 mi East 3.5 mph - - Rain Light Rain
1:55 PM 50.0 °F - 44.6 °F 82% 29.68 in 6.2 mi East 2.3 mph - N/A Rain Rain
2:00 PM 50 °F - 45 °F 78% 29.71 in 6 mi East 2.3 mph - - Rain Light Rain
2:55 PM 48.2 °F - 44.6 °F 87% 29.68 in 6.2 mi ENE 5.8 mph - N/A Rain Light Rain
3:00 PM 49 °F - 45 °F 81% 29.69 in 6 mi ENE 5.8 mph - - Rain Light Rain
3:55 PM 48.2 °F - 48.2 °F 100% 29.68 in 6.2 mi ENE 3.5 mph - N/A Rain Light Rain
4:00 PM 49 °F - 48 °F 94% 29.69 in 6 mi ENE 3.5 mph - - Rain Light Rain
4:55 PM 50.0 °F - 46.4 °F 87% 29.65 in 6.2 mi East 4.6 mph - N/A Rain Rain
5:00 PM 49 °F - 46 °F 83% 29.66 in 6 mi East 4.6 mph - - Rain Light Rain
5:55 PM 50.0 °F - 44.6 °F 82% 29.62 in 6.2 mi ENE 4.6 mph - N/A Rain Rain
6:00 PM 50 °F - 45 °F 76% 29.63 in 6 mi ENE 4.6 mph - - Rain Light Rain
6:55 PM 51.8 °F - 46.4 °F 82% 29.59 in 6.2 mi East 5.8 mph 17.3 mph N/A Rain Rain
7:00 PM 51 °F - 47 °F 80% 29.61 in 6 mi East 5.8 mph - - Rain Light Rain
7:55 PM 51.8 °F - 48.2 °F 88% 29.56 in 6.2 mi ESE 10.4 mph 25.3 mph N/A Rain Rain
8:00 PM 52 °F - 48 °F 83% 29.59 in 6 mi ESE 10.4 mph - - Rain Light Rain
8:55 PM 51.8 °F - 50.0 °F 94% 29.56 in 6.2 mi ESE 11.5 mph 27.6 mph N/A Rain Rain
9:00 PM 53 °F - 49 °F 82% 29.57 in 6 mi ESE 11.5 mph - - Rain Light Rain
9:55 PM 53.6 °F - 50.0 °F 88% 29.56 in 6.2 mi ENE 13.8 mph 25.3 mph N/A   Light Drizzle
10:00 PM 54 °F - 49 °F 79% 29.57 in 6 mi ENE 13.8 mph - - Rain Light Drizzle
10:55 PM 53.6 °F - 50.0 °F 88% 29.56 in 6.2 mi ESE 8.1 mph 21.9 mph N/A Rain Rain
11:00 PM 54 °F - 51 °F 84% 29.58 in 6 mi ESE 8.1 mph - - Rain Light Rain
11:55 PM 55.4 °F - 50.0 °F 82% 29.56 in 6.2 mi SW 8.1 mph - N/A   Scattered Clouds